Location: Blangy-Tronville
(49.8790°N, 2.4226°E)
Time: 06:07:30
(UTC+00:00)

Cosmos 1656 Rocket - Pass Details

Date: 18 November 2025
Orbit: 791 x 846 km, 71.1° (Epoch: 06 December)

Event Time Altitude Azimuth Distance (km) Brightness Sun altitude
Rises 17:59:57 0° 181° (S) 3,330 6.9 -18.6°
Reaches altitude 10° 18:02:29 10° 173° (S) 2,411 6.1 -19.0°
Maximum altitude 18:07:32 38° 107° (ESE) 1,256 4.1 -19.8°
Enters shadow 18:07:58 37° 97° (E) 1,270 4.1 -19.9°
